#timestamp,LO_Frequency,Hit,StdDev 
1618398015.6,286047005.3,Y
1618398035.5,286047001.6,P
1618398055.3,286047002.2,P
1618398075.1,286047001.9,P
1618398095.9,286047002.0,Y
1618398115.7,286046999.2,P
1618398135.6,286046998.0,N
1618398155.4,286046997.0,N
1618398175.2,286046995.3,N
1618398195.1,286046995.2,N
1618398196.0,286046995.2,N
1618398215.8,286046997.3,N
1618398235.7,286046995.6,N
1618398255.5,286046996.0,N
1618398275.3,286046996.3,N
1618398295.2,286046997.7,N
1618398315.0,286046997.7,N
1618398315.9,286046997.7,N
1618398335.8,286046999.5,N
1618398355.6,286046999.5,N
1618398375.4,286046996.8,N
1618398395.3,286046998.1,N
1618398415.1,286046996.9,N
1618398435.8,286046995.6,N
1618398455.7,286046995.0,N
1618398475.5,286046995.0,N
1618398495.4,286046996.8,N
1618398515.2,286046996.6,N
1618398535.0,286046997.3,N
1618398535.9,286046997.3,N
1618398555.8,286046995.3,N
1618398575.6,286046996.2,N
1618398595.5,286046994.2,Y
1618398615.3,286046997.1,P
1618398635.1,286047002.5,P
1618398655.9,286047000.4,N
1618398675.7,286046996.7,N
1618398695.6,286046996.9,N
1618398715.4,286046999.2,N
1618398735.2,286047001.1,N
1618398755.1,286047000.4,N
1618398756.0,286047000.4,N
1618398775.8,286047000.5,N
1618398795.6,286047001.1,N
1618398815.5,286046998.5,N
1618398835.3,286046996.6,N
1618398855.2,286046998.4,N
1618398875.9,286047001.2,N
1618398895.7,286047000.4,N
1618398915.6,286046999.1,N
1618398935.4,286046997.0,N
1618398955.2,286046999.1,N
1618398975.1,286046997.0,N
1618398976.0,286046997.0,N
1618398995.8,286046995.6,N
1618399015.7,286046995.0,N
1618399035.5,286046995.6,N
1618399055.3,286046995.5,N
1618399075.2,286046995.0,N
1618399095.0,286046995.8,N
1618399095.9,286046995.8,N
1618399115.8,286046996.8,N
1618399135.6,286047000.9,N
1618399155.4,286047000.5,N
1618399175.3,286046996.9,N
1618399195.1,286046999.2,N
1618399215.8,286046999.7,N
1618399235.7,286047002.0,N
1618399255.5,286047000.6,N
1618399275.4,286047001.2,N
1618399295.2,286047002.2,N
1618399345.1,286047002.4,E
1618399355.9,286047000.0,N
1618399375.7,286047000.9,P
1618399395.6,286046998.4,P
1618399415.4,286047000.3,N
1618399435.2,286047002.5,N
1618399455.1,286047003.0,N
1618399456.0,286047003.0,N
1618399475.8,286047001.6,N
1618399495.6,286047001.3,N
1618399515.5,286046999.9,N
1618399535.3,286046998.9,N
1618399555.2,286046997.8,N
1618399575.9,286046997.6,N
1618399595.7,286046994.9,N
1618399615.6,286046997.1,N
1618399635.4,286046997.6,N
1618399655.2,286046997.4,N
1618399675.1,286046996.1,N
1618399676.0,286046996.1,N
1618399695.8,286046997.3,N
1618399715.7,286046996.1,N
1618399735.5,286046994.0,N
1618399755.3,286046993.9,N
1618399775.2,286046993.3,N
1618399795.0,286046997.8,N
1618399795.9,286046997.8,N
1618399815.8,286046995.1,N
1618399835.6,286046993.7,N
1618399855.4,286046995.5,N
1618399875.3,286046995.1,N
1618399895.1,286046997.8,N
1618399915.8,286046995.1,N
1618399935.7,286046997.9,N
1618399955.5,286046996.4,N
1618399975.4,286046999.1,N
1618399995.2,286046996.8,N
1618400015.0,286046999.4,N
1618400015.9,286046999.4,N
1618400035.8,286046997.0,N
1618400055.6,286046999.0,N
1618400075.4,286047000.4,N
1618400095.3,286046998.6,N
1618400115.1,286046999.2,N
1618400135.9,286046996.5,N
1618400155.7,286047001.0,N
1618400175.5,286047000.9,N
1618400195.4,286047000.4,N
1618400215.2,286047001.7,N
1618400235.0,286047001.5,N
1618400236.0,286047001.5,N
1618400255.8,286047001.3,N
1618400275.6,286047001.9,N
1618400295.9,286046998.5,N
1618400315.7,286046998.2,N
1618400335.6,286047000.8,N
1618400355.4,286046998.7,N
1618400375.2,286046998.9,N
1618400395.1,286046997.7,N
1618400396.0,286046997.7,N
1618400415.8,286046998.7,N
1618400435.6,286046998.8,N
1618400455.5,286046999.2,N
1618400475.3,286046996.7,N
1618400495.2,286046998.3,N
1618400515.9,286046998.1,N
1618400535.7,286046998.9,N
1618400555.6,286046996.5,N
1618400575.4,286046995.1,Y
1618400595.2,286047000.9,P
1618400615.1,286047001.6,N
1618400616.0,286047001.6,N
1618400635.8,286047001.6,N
1618400655.7,286047003.1,Y
1618400675.5,286047002.2,P
1618400695.3,286047002.4,P
1618400715.2,286046998.6,N
1618400735.0,286047001.2,N
1618400735.9,286047001.2,N
1618400755.8,286047001.2,N
1618400775.6,286046998.1,N
1618400795.4,286047001.0,N
1618400815.3,286047000.1,N
1618400835.1,286047000.1,N
1618400855.8,286047000.6,N
1618400875.7,286047000.5,N
1618400895.5,286047002.5,N
1618400915.4,286046999.9,N
1618400935.2,286047002.2,N
1618400955.0,286047000.1,N
1618400955.9,286047000.1,N
1618400975.8,286046999.8,N
1618400995.6,286047001.8,N
1618401015.4,286047001.7,N
1618401035.3,286047002.0,N
1618401055.1,286047002.1,N
1618401075.9,286047001.4,N
1618401095.7,286047002.9,N
1618401115.5,286047003.0,N
1618401135.4,286047001.6,N
1618401155.2,286047002.3,N
1618401175.0,286047000.4,N
1618401175.9,286047000.4,N
1618401195.8,286046999.7,N
1618401215.6,286047002.3,N
1618401235.5,286047000.1,N
1618401255.3,286047000.1,N
1618401275.1,286047000.6,N
1618401295.9,286047002.4,N
1618401315.7,286046999.8,N
1618401335.5,286047000.2,N
1618401355.4,286047000.3,N
1618401375.2,286046999.8,N
1618401395.0,286046998.1,N
1618401396.0,286046998.1,N
1618401415.8,286047001.5,N
1618401435.6,286047005.2,Y
1618401455.5,286047001.6,P
1618401475.3,286047000.3,N
1618401495.1,286047000.3,N
1618401515.9,286046998.9,N
1618401535.7,286046999.0,N
1618401555.6,286046998.7,N
1618401575.4,286046996.9,Y
1618401595.2,286046999.7,P
